This demonstration page uses our WeatherBlox Daily Observations layout. Learn more.

Left ArrowRight Arrow

39.08367, -84.50855

Hourly Observations for December 2, 2015

Temp ( °F °C ) Dew Point ( °F °C ) Humidity (%) Winds ( mph kmh ) Pressure ( in mb ) Visibility ( mi km ) Precip ( " mm )
12:34 am 00:34 Clear with Mist and Fog 39 4 39 4 100 100 Calm 29.94 1014 2 3 0.00 0.00
12:48 am 00:48 Clear with Mist and Fog 39 4 39 4 100 100 Calm 29.94 1014 4 6 0.00 0.00
12:53 am 00:53 Clear with Mist and Fog 39 3.9 39 3.9 100 100 Calm 29.93 1013 5 8 0.00 0.00
1:00 am 01:00 Clear with Mist and Fog 39 4 39 4 100 100 Calm 29.94 1014 2 3 0.00 0.00
1:20 am 01:20 Clear with Mist and Fog 39 4 39 4 100 100 Calm 29.94 1014 3 5 0.00 0.00
1:27 am 01:27 Clear with Mist and Fog 40 4.4 40 4.4 100 100 Calm 29.94 1014 2 3 0.00 0.00
1:53 am 01:53 Clear with Mist and Fog 39 3.9 39 3.9 100 100 Calm 29.91 1013 1 1 0.00 0.00
2:14 am 02:14 Mostly Cloudy with Fog 39 4 39 4 100 100 Calm 29.94 1014 1 1 0.00 0.00
2:40 am 02:40 Mostly Cloudy with Mist and Fog 39 4 39 4 100 100 Calm 29.91 1013 1 2 0.00 0.00
2:53 am 02:53 Mostly Cloudy with Fog 38 3.3 38 3.3 100 100 Calm 29.88 1012 0 0 0.00 0.00
3:00 am 03:00 Mostly Cloudy with Fog 39 4 39 4 100 100 Calm 29.91 1013 1 1 0.00 0.00
3:29 am 03:29 Mostly Cloudy with Fog 38 3.3 38 3.3 100 100 NNE 3 6 29.91 1013 1 1 0.00 0.00
3:53 am 03:53 Mostly Cloudy with Fog 38 3.3 38 3.3 100 100 Calm 29.86 1011 0 0 0.00 0.00
4:19 am 04:19 Mostly Cloudy with Fog 37 2.8 37 2.8 100 100 Calm 29.88 1012 1 1 0.00 0.00
4:30 am 04:30 Mostly Cloudy with Fog 37 3 37 3 100 100 Calm 29.88 1012 0 0 0.00 0.00
4:53 am 04:53 Mostly Cloudy with Fog 39 3.9 39 3.9 100 100 Calm 29.86 1011 0 0 0.00 0.00
5:53 am 05:53 Mostly Cloudy with Fog 38 3.3 38 3.3 100 100 Calm 29.85 1011 0 0 0.00 0.00
6:16 am 06:16 Mostly Cloudy with Fog 37 3 37 3 100 100 Calm 29.88 1012 1 1 0.00 0.00
6:53 am 06:53 Mostly Cloudy with Fog 39 3.9 39 3.9 100 100 Calm 29.86 1011 0 0 0.00 0.00
7:28 am 07:28 Cloudy with Fog 39 4 39 4 100 100 SE 3 6 29.88 1012 1 1 0.00 0.00
7:53 am 07:53 Mostly Cloudy with Fog 38 3.3 38 3.3 100 100 Calm 29.84 1011 0 0 0.00 0.00
8:14 am 08:14 Mostly Cloudy with Fog 39 4 39 4 100 100 Calm 29.85 1011 1 1 0.00 0.00
8:20 am 08:20 Mostly Cloudy with Mist and Fog 37 3 37 3 100 100 Calm 29.85 1011 2 3 0.00 0.00
8:30 am 08:30 Partly Cloudy with Mist and Fog 37 3 37 3 100 100 Calm 29.85 1011 2 3 0.00 0.00
8:42 am 08:42 Mostly Cloudy with Fog 37 3 37 3 100 100 NNW 3 6 29.85 1011 1 1 0.00 0.00
8:53 am 08:53 Cloudy with Fog 38 3.3 38 3.3 100 100 Calm 29.85 1011 0 0 0.00 0.00
9:53 am 09:53 Cloudy with Fog 41 5 41 5 100 100 WSW 5 7 29.85 1011 0 0 0.00 0.00
9:59 am 09:59 Cloudy with Mist and Fog 41 5 41 5 100 100 SW 3 6 29.85 1011 1 2 0.00 0.00
10:06 am 10:06 Cloudy with Mist and Fog 43 6 43 6 100 100 SW 5 7 29.85 1011 2 3 0.00 0.00
10:12 am 10:12 Cloudy with Mist and Fog 43 6 43 6 100 100 SW 3 6 29.85 1011 3 5 0.00 0.00
10:53 am 10:53 Mostly Sunny 45 7.2 43 6.1 93 93 SW 7 11 29.82 1010 10 16 0.00 0.00
11:53 am 11:53 Partly Cloudy 50 10 40 4.4 68 68 SW 12 19 29.81 1009 10 16 0.00 0.00
12:53 pm 12:53 Mostly Cloudy 47 8.3 37 2.8 69 69 W 13 20 29.80 1009 10 16 0.00 0.00
1:53 pm 13:53 Cloudy 47 8.3 36 2.2 66 66 WSW 15 24 29.81 1009 10 16 0.00 0.00
2:53 pm 14:53 Cloudy 45 7.2 36 2.2 71 71 W 16 26 29.83 1010 10 16 0.00 0.00
3:53 pm 15:53 Cloudy with Rain 40 4.4 36 2.2 86 86 WNW 17 28 29.88 1012 5 8 0.02 0.51
4:34 pm 16:34 Cloudy with Light Rain 37 3 34 1 87 87 W 15 24 29.91 1013 10 16 0.00 0.00
4:53 pm 16:53 Cloudy 38 3.3 33 0.6 83 83 W 13 20 29.91 1013 10 16 0.01 0.25
5:53 pm 17:53 Cloudy 38 3.3 31 -0.6 76 76 W 16 26 29.93 1014 10 16 0.00 0.00
6:53 pm 18:53 Cloudy 38 3.3 29 -1.7 70 70 W 13 20 29.95 1014 10 16 0.00 0.00
7:53 pm 19:53 Partly Cloudy 36 2.2 30 -1.1 79 79 W 9 15 29.98 1015 10 16 0.00 0.00
8:53 pm 20:53 Cloudy 37 2.8 31 -0.6 79 79 SW 7 11 29.99 1016 10 16 0.00 0.00
9:53 pm 21:53 Cloudy with Light Rain 38 3.3 32 0 79 79 WSW 7 11 29.99 1016 10 16 0.00 0.03
10:53 pm 22:53 Cloudy 37 2.8 32 0 82 82 WSW 10 17 30.01 1016 10 16 0.00 0.03
11:15 pm 23:15 Cloudy with Light Rain 36 2.2 34 1.1 93 93 W 12 19 30.03 1017 8 13 0.01 0.25
11:26 pm 23:26 Cloudy 36 2 34 1 93 93 W 10 17 30.03 1017 10 16 0.00 0.00
11:53 pm 23:53 Cloudy 36 2.2 32 0 86 86 W 15 24 30.04 1017 10 16 0.01 0.25

Powered by AerisWeather